Date,TemperatureHighF,TemperatureAvgF,TemperatureLowF,DewpointHighF,DewpointAvgF,DewpointLowF,HumidityHigh,HumidityAvg,HumidityLow,PressureMaxIn,PressureMinIn,WindSpeedMaxMPH,WindSpeedAvgMPH,GustSpeedMaxMPH,PrecipitationSumIn
2013-3-1,33.8,30.1,25.3,32.3,25.3,19.6,95,82,72,30.02,29.81,12,6,12,0.00
2013-3-2,28.4,25.7,24.1,22.7,20.1,16.6,89,79,67,29.99,29.95,12,4,12,0.00
2013-3-3,28.9,25.6,23.5,23.0,19.6,14.5,92,78,61,30.06,29.92,12,5,12,0.00
2013-3-4,36.5,27.7,21.7,19.4,16.3,12.8,80,63,47,30.18,30.02,15,5,15,0.00
2013-3-5,44.1,31.0,18.5,22.4,17.5,13.5,87,60,35,30.16,29.71,12,3,14,0.00
2013-3-6,40.3,36.5,32.9,35.6,29.1,21.9,99,76,54,30.15,29.71,16,2,17,0.20
2013-3-7,41.5,35.5,33.1,31.7,28.6,25.2,91,76,58,30.31,30.08,12,4,12,0.00
2013-3-8,40.6,33.6,27.3,27.6,25.6,21.9,85,73,54,30.44,30.27,12,5,12,0.00
2013-3-9,53.1,36.2,21.9,30.0,24.8,19.4,93,67,38,30.46,30.18,7,1,7,0.00
2013-3-10,70.0,51.2,33.3,37.1,32.1,25.6,81,53,29,30.22,29.96,12,3,12,0.00
2013-3-11,63.3,55.0,46.4,49.4,35.3,29.0,91,49,32,29.99,29.67,19,6,20,0.15
2013-3-12,50.4,40.2,36.1,47.8,33.7,26.0,93,78,64,30.00,29.75,18,7,18,0.08
2013-3-13,37.0,32.3,25.7,31.5,25.1,15.7,90,75,50,30.14,29.91,18,7,19,0.00
2013-3-14,37.9,30.1,25.2,20.9,17.1,13.2,78,59,44,30.24,30.10,18,7,18,0.00
2013-3-15,48.9,37.5,26.1,35.9,24.5,13.4,91,60,47,30.14,29.81,21,6,21,0.00
2013-3-16,41.0,37.0,34.2,39.2,35.2,32.0,97,93,91,29.97,29.65,10,2,10,0.08
2013-3-17,35.6,31.8,27.9,32.1,22.9,19.8,93,70,55,30.23,29.97,12,3,12,0.00
2013-3-18,37.9,33.6,29.1,35.8,28.6,19.2,95,82,60,30.20,29.71,16,5,16,0.31
2013-3-19,44.1,37.1,30.0,40.7,26.2,14.7,97,67,41,29.98,29.68,25,9,32,0.43
2013-3-20,39.9,31.3,26.4,24.7,16.6,13.6,66,54,41,29.99,29.83,22,8,23,0.12
2013-3-21,29.7,24.3,18.3,21.9,13.0,4.9,86,63,47,29.93,29.85,13,6,15,0.00
2013-3-22,32.9,28.3,24.3,22.2,18.4,14.7,85,67,54,30.06,29.89,16,6,16,0.00
2013-3-23,44.8,32.7,22.8,26.3,20.6,14.7,84,63,43,30.07,29.97,13,3,13,0.00
2013-3-24,44.1,33.5,23.9,29.6,20.9,16.8,85,61,43,30.04,29.54,16,4,17,0.00
2013-3-25,38.8,35.3,32.5,36.7,33.5,29.0,96,93,83,29.75,29.47,10,1,11,0.24
2013-3-26,42.3,37.0,34.3,34.8,32.0,28.7,95,83,60,30.06,29.72,12,3,12,0.51
2013-3-27,42.6,36.8,33.8,33.6,30.5,23.8,96,80,48,30.15,30.03,15,5,15,0.00
2013-3-28,42.8,38.0,34.3,34.9,30.0,27.0,95,74,56,30.27,30.08,16,5,16,0.00
2013-3-29,52.5,42.8,36.1,32.5,27.7,20.2,78,57,35,30.27,30.11,12,3,12,0.00
2013-3-30,56.5,41.2,25.3,29.7,22.6,17.7,83,51,31,30.27,30.02,13,2,13,0.00
2013-3-31,50.9,44.0,36.1,47.3,36.5,21.2,94,76,47,30.02,29.69,15,4,15,0.04